FW3572 Weather Reports


Display with metric or nautical units.
time (UTC)temp
F
wind
direction
speed
MPH
gust
MPH
rain 1hr
in
rain 24hr
in
rain mn
in
humidity
%
barometer
mb
20260901162548 89 9 3.0 10.0 0.00 0.02 0.01 100 1018.1
20260901162047 88 346 3.0 9.0 0.00 0.02 0.01 100 1018.3
20260901161602 89 39 3.0 10.0 0.00 0.02 0.01 100 1018.2
20260901161048 89 336 5.0 10.0 0.00 0.02 0.01 100 1018.2
20260901160543 89 38 2.0 10.0 0.00 0.02 0.01 100 1018.3
20260901160104 88 36 4.0 11.0 0.00 0.02 0.01 100 1018.3
20260901155543 88 50 3.0 11.0 0.00 0.02 0.01 100 1018.3
20260901155043 89 325 4.0 11.0 0.00 0.02 0.01 100 1018.3
20260901154541 89 319 2.0 12.0 0.00 0.02 0.01 100 1018.2
20260901154040 88 17 4.0 12.0 0.00 0.02 0.01 100 1018.3
20260901153539 89 31 5.0 12.0 0.00 0.02 0.01 100 1018.3
20260901153037 88 58 3.0 9.0 0.00 0.02 0.01 100 1018.4
20260901152535 88 39 4.0 11.0 0.00 0.02 0.01 100 1018.5
20260901152034 88 44 3.0 11.0 0.00 0.02 0.01 100 1018.5
20260901151532 88 138 1.0 8.0 0.00 0.02 0.01 100 1018.5
20260901151031 88 40 3.0 9.0 0.00 0.02 0.01 100 1018.4
20260901150531 87 5 3.0 11.0 0.00 0.02 0.01 100 1018.5
20260901150028 88 360 5.0 11.0 0.00 0.02 0.01 100 1018.4
20260901145526 88 360 3.0 9.0 0.00 0.02 0.01 100 1018.4
20260901145025 88 5 2.0 8.0 0.00 0.02 0.01 100 1018.3
20260901144523 87 355 1.0 8.0 0.00 0.02 0.01 100 1018.3
20260901144021 87 75 2.0 8.0 0.00 0.02 0.01 100 1018.3
20260901143520 87 28 2.0 9.0 0.00 0.02 0.01 100 1018.3
20260901143021 87 346 1.0 9.0 0.00 0.02 0.01 100 1018.1
20260901142518 87 22 1.0 8.0 0.00 0.02 0.01 100 1018.1
20260901142016 87 323 2.0 9.0 0.00 0.02 0.01 100 1018.1
20260901141514 86 340 3.0 9.0 0.00 0.02 0.01 100 1018.0
20260901141016 85 12 2.0 8.0 0.00 0.02 0.01 100 1017.9
20260901140513 85 360 1.0 9.0 0.00 0.02 0.01 100 1017.9
20260901140012 85 5 3.0 9.0 0.00 0.02 0.01 100 1018.0
20260901135513 85 52 2.0 6.0 0.00 0.02 0.01 100 1018.0
20260901135013 85 10 1.0 6.0 0.00 0.02 0.01 100 1017.9
20260901134513 85 11 1.0 6.0 0.00 0.02 0.01 100 1018.0
20260901134011 85 344 2.0 6.0 0.00 0.02 0.01 100 1018.0
20260901133507 85 16 2.0 6.0 0.00 0.02 0.01 100 1018.0
20260901133006 85 19 2.0 6.0 0.00 0.02 0.01 100 1017.9
20260901132506 84 339 3.0 6.0 0.00 0.02 0.01 100 1017.9
20260901132005 84 336 1.0 6.0 0.00 0.02 0.01 100 1017.9
20260901131503 84 355 2.0 7.0 0.00 0.02 0.01 100 1018.0
20260901131003 84 5 2.0 6.0 0.00 0.02 0.01 100 1018.0
20260901130503 84 11 0.0 5.0 0.00 0.02 0.01 100 1018.0
20260901130001 83 329 1.0 5.0 0.00 0.02 0.01 100 1017.9
20260901125600 83 43 0.0 4.0 0.00 0.02 0.01 100 1017.8
20260901125059 83 340 0.0 5.0 0.00 0.02 0.01 100 1017.7
20260901124605 82 360 0.0 5.0 0.00 0.02 0.01 100 1017.8
20260901124057 82 355 0.0 0.0 0.00 0.02 0.01 100 1017.7
20260901123558 81 336 0.0 0.0 0.00 0.02 0.01 100 1017.8
20260901123114 81 342 0.0 0.0 0.00 0.02 0.01 100 1017.8
20260901122558 80 343 0.0 0.0 0.00 0.02 0.01 100 1017.7
20260901122101 80 342 0.0 0.0 0.00 0.02 0.01 100 1017.7
20260901121559 80 344 0.0 0.0 0.00 0.02 0.01 100 1017.7
20260901121057 79 343 0.0 2.0 0.00 0.02 0.01 100 1017.6
20260901120557 78 345 0.0 5.0 0.00 0.02 0.01 100 1017.6
20260901120101 78 346 0.0 5.0 0.00 0.02 0.01 100 1017.6
20260901115557 78 337 0.0 3.0 0.00 0.02 0.01 100 1017.5
20260901115056 78 338 1.0 3.0 0.00 0.02 0.01 100 1017.4
20260901114603 78 325 0.0 0.0 0.00 0.02 0.01 100 1017.4
20260901114055 78 313 0.0 0.0 0.00 0.02 0.01 100 1017.4
20260901113557 78 313 0.0 0.0 0.00 0.02 0.01 100 1017.2
20260901113101 78 313 0.0 0.0 0.00 0.02 0.01 100 1017.1
20260901112556 77 313 0.0 0.0 0.00 0.02 0.01 100 1017.0
20260901112054 77 314 0.0 0.0 0.00 0.02 0.01 100 1017.0
20260901111606 77 314 0.0 0.0 0.00 0.02 0.01 100 1017.0
20260901111057 77 314 0.0 0.0 0.00 0.02 0.01 100 1016.9
20260901110553 77 314 0.0 0.0 0.00 0.02 0.01 100 1016.8
20260901110054 77 314 0.0 0.0 0.00 0.02 0.01 100 1016.8
20260901105553 77 315 0.0 0.0 0.00 0.02 0.01 100 1016.7
20260901105053 77 315 0.0 0.0 0.00 0.02 0.01 100 1016.6
20260901104553 77 315 0.0 0.0 0.00 0.02 0.01 100 1016.7
20260901104053 77 315 0.0 0.0 0.00 0.02 0.01 100 1016.7
20260901103553 77 315 0.0 0.0 0.00 0.02 0.01 100 1016.7
20260901103052 77 315 0.0 0.0 0.00 0.02 0.01 100 1016.8
20260901102552 78 315 0.0 0.0 0.00 0.02 0.01 100 1016.7
20260901102053 78 315 0.0 0.0 0.00 0.02 0.01 100 1016.8
20260901101553 78 315 0.0 0.0 0.00 0.02 0.01 100 1016.7
20260901101051 78 315 0.0 0.0 0.00 0.02 0.01 100 1016.7
20260901100552 78 315 0.0 0.0 0.00 0.02 0.01 100 1016.6
20260901100055 78 315 0.0 0.0 0.00 0.02 0.01 100 1016.7
20260901095550 78 315 0.0 0.0 0.00 0.02 0.01 100 1016.7
20260901095052 78 315 0.0 0.0 0.00 0.02 0.01 100 1016.7
20260901094550 78 315 0.0 0.0 0.00 0.02 0.01 100 1016.7
20260901094051 78 315 0.0 0.0 0.00 0.02 0.01 100 1016.6
20260901093551 78 316 0.0 0.0 0.00 0.02 0.01 100 1016.7
20260901093052 78 316 0.0 0.0 0.00 0.02 0.01 100 1016.6
20260901092549 78 312 0.0 0.0 0.00 0.02 0.01 100 1016.6
20260901092049 78 312 0.0 0.0 0.00 0.02 0.01 100 1016.7
20260901091549 78 312 0.0 0.0 0.00 0.02 0.01 100 1016.6
20260901091049 78 312 0.0 0.0 0.00 0.02 0.01 100 1016.6
20260901090552 78 311 0.0 0.0 0.00 0.02 0.01 100 1016.7
20260901090048 78 309 0.0 0.0 0.00 0.02 0.01 100 1016.6
20260901085548 78 309 0.0 0.0 0.00 0.02 0.01 100 1016.7
20260901085048 78 309 0.0 0.0 0.00 0.02 0.01 100 1016.7
20260901084548 78 309 0.0 0.0 0.00 0.02 0.01 100 1016.5
20260901084052 78 309 0.0 0.0 0.00 0.02 0.01 100 1016.6
20260901083547 78 308 0.0 0.0 0.00 0.02 0.01 100 1016.5
20260901083048 78 309 0.0 0.0 0.00 0.02 0.01 100 1016.6
20260901082547 78 309 0.0 0.0 0.00 0.02 0.01 100 1016.6
20260901082047 78 210 0.0 0.0 0.00 0.02 0.01 100 1016.6
20260901081547 78 210 0.0 0.0 0.00 0.02 0.01 100 1016.5
20260901081046 78 210 0.0 0.0 0.00 0.02 0.01 100 1016.6
20260901080545 79 210 0.0 0.0 0.00 0.02 0.01 100 1016.6
20260901080046 79 210 0.0 0.0 0.00 0.02 0.01 100 1016.6
20260901075545 79 210 0.0 0.0 0.00 0.02 0.01 100 1016.6
20260901075043 78 210 0.0 0.0 0.00 0.02 0.01 100 1016.7
20260901074548 78 210 0.0 0.0 0.00 0.02 0.01 100 1016.7
20260901074045 78 210 0.0 0.0 0.00 0.02 0.01 100 1016.9
20260901073543 78 210 0.0 0.0 0.00 0.02 0.01 100 1016.8
20260901073043 78 210 0.0 0.0 0.00 0.02 0.01 100 1017.0
20260901072544 78 210 0.0 0.0 0.00 0.02 0.01 100 1016.9
20260901072044 78 210 0.0 0.0 0.00 0.02 0.01 100 1017.1
20260901071542 78 210 0.0 0.0 0.00 0.02 0.01 100 1017.0
20260901071042 78 210 0.0 0.0 0.00 0.02 0.01 100 1017.0
20260901070540 79 211 0.0 0.0 0.00 0.02 0.01 100 1017.1
20260901070040 79 213 0.0 0.0 0.00 0.02 0.01 100 1017.1
20260901065540 79 213 0.0 0.0 0.00 0.02 0.01 100 1017.2
20260901065040 79 213 0.0 0.0 0.00 0.02 0.01 100 1017.2
20260901064539 79 212 0.0 0.0 0.00 0.02 0.01 100 1017.2
20260901064043 79 211 0.0 0.0 0.00 0.02 0.01 100 1017.2
20260901063539 79 199 0.0 3.0 0.00 0.02 0.01 100 1017.2
20260901063051 79 190 0.0 3.0 0.00 0.02 0.01 100 1017.4
20260901062539 79 178 0.0 0.0 0.00 0.02 0.01 100 1017.3
20260901062038 79 178 0.0 0.0 0.00 0.02 0.01 100 1017.3
20260901061545 79 178 0.0 0.0 0.00 0.02 0.01 100 1017.4
20260901061037 79 178 0.0 0.0 0.00 0.02 0.01 100 1017.5
20260901060538 79 178 0.0 0.0 0.00 0.02 0.01 100 1017.4
20260901060037 79 178 0.0 0.0 0.00 0.02 0.01 100 1017.4
20260901055536 78 178 0.0 0.0 0.00 0.02 0.01 100 1017.6
20260901055036 79 178 0.0 0.0 0.01 0.02 0.01 100 1017.6
20260901054537 78 178 0.0 0.0 0.01 0.02 0.01 100 1017.6
20260901054036 78 178 0.0 0.0 0.01 0.02 0.01 100 1017.7
20260901053539 78 178 0.0 0.0 0.01 0.02 0.01 100 1017.8
20260901053034 79 178 0.0 3.0 0.01 0.02 0.01 100 1017.8
20260901052532 78 178 0.0 4.0 0.01 0.02 0.01 100 1017.8
20260901052031 79 178 1.0 6.0 0.01 0.02 0.01 100 1017.9
20260901051537 79 179 2.0 8.0 0.01 0.02 0.01 100 1018.0
20260901051029 79 184 3.0 8.0 0.01 0.02 0.01 100 1018.1
20260901050528 80 152 4.0 8.0 0.01 0.02 0.01 100 1018.1
20260901050027 81 165 1.0 6.0 0.01 0.02 0.01 100 1018.1
20260901045530 81 165 2.0 10.0 0.01 0.02 0.01 100 1018.1
20260901045028 81 132 5.0 10.0 0.00 0.01 0.00 100 1018.1
20260901044524 82 146 0.0 0.0 0.00 0.01 0.00 100 1018.1
20260901044024 82 146 0.0 0.0 0.00 0.01 0.00 100 1018.2
20260901043523 82 146 0.0 0.0 0.00 0.01 0.00 100 1018.1
20260901043031 82 146 0.0 3.0 0.00 0.01 0.00 100 1018.1
20260901042524 82 146 0.0 3.0 0.00 0.01 0.00 100 1018.1
20260901042023 82 121 0.0 3.0 0.00 0.01 0.00 100 1018.1
20260901041522 82 116 0.0 0.0 0.00 0.01 0.00 100 1018.1
20260901041022 82 116 0.0 0.0 0.00 0.01 0.00 100 1018.2
20260901040527 82 116 0.0 0.0 0.00 0.01 0.00 100 1018.2
20260901040024 82 116 0.0 0.0 0.00 0.01 0.00 100 1018.1
20260901035522 82 116 0.0 0.0 0.00 0.01 0.00 100 1018.1
20260901035022 82 116 0.0 0.0 0.00 0.01 0.00 100 1018.1
20260901034520 82 116 0.0 0.0 0.00 0.01 0.01 100 1018.1
20260901034020 82 116 0.0 0.0 0.00 0.01 0.01 100 1018.1
20260901033520 82 116 0.0 0.0 0.00 0.01 0.01 100 1018.2
20260901033021 82 116 0.0 1.0 0.00 0.01 0.01 100 1018.3
20260901032520 82 116 0.0 1.0 0.00 0.01 0.01 100 1018.3
20260901032020 82 116 0.0 1.0 0.00 0.01 0.01 100 1018.3
20260901031520 82 116 0.0 0.0 0.00 0.01 0.01 100 1018.3
20260901031019 82 116 0.0 3.0 0.00 0.01 0.01 100 1018.3
20260901030519 82 116 0.0 3.0 0.00 0.01 0.01 100 1018.3
20260901030020 82 116 0.0 2.0 0.00 0.01 0.01 100 1018.3
20260901025519 82 116 0.0 3.0 0.00 0.01 0.01 100 1018.3
20260901025019 82 116 1.0 4.0 0.00 0.01 0.01 100 1018.3
20260901024519 81 115 0.0 4.0 0.00 0.01 0.01 100 1018.4
20260901024022 81 121 1.0 4.0 0.00 0.01 0.01 100 1018.5
20260901023518 81 117 0.0 4.0 0.00 0.01 0.01 100 1018.6
20260901023028 81 115 1.0 4.0 0.00 0.01 0.01 100 1018.6
20260901022521 81 108 1.0 4.0 0.00 0.01 0.01 100 1018.6
20260901022018 81 99 0.0 4.0 0.00 0.01 0.01 100 1018.5
20260901021518 81 16 0.0 1.0 0.00 0.01 0.01 100 1018.3
20260901021019 81 16 0.0 1.0 0.00 0.01 0.01 100 1018.2
20260901020520 81 16 0.0 0.0 0.00 0.01 0.01 100 1018.1
20260901020019 81 16 0.0 2.0 0.00 0.01 0.01 100 1018.1
20260901015517 81 16 0.0 3.0 0.00 0.01 0.01 100 1018.1
20260901015021 81 15 0.0 3.0 0.00 0.01 0.01 100 1018.0
20260901014517 81 13 0.0 3.0 0.00 0.01 0.01 100 1017.9
20260901014016 81 5 1.0 3.0 0.00 0.01 0.01 100 1017.8
20260901013517 81 5 0.0 0.0 0.00 0.01 0.01 100 1017.8
20260901013017 81 9 0.0 0.0 0.00 0.01 0.01 100 1017.8
20260901012516 81 15 0.0 0.0 0.00 0.01 0.01 100 1017.8
20260901012016 81 17 0.0 0.0 0.00 0.01 0.01 100 1017.8
20260901011517 81 18 0.0 0.0 0.00 0.01 0.01 100 1017.7
20260901011015 81 18 0.0 0.0 0.00 0.01 0.01 100 1017.7
20260901010520 81 29 0.0 0.0 0.00 0.01 0.01 100 1017.7
20260901010017 81 32 0.0 0.0 0.00 0.01 0.01 100 1017.7
20260901005515 81 32 0.0 3.0 0.00 0.01 0.01 100 1017.6
20260901005018 82 33 0.0 3.0 0.00 0.01 0.01 100 1017.6
20260901004516 82 40 0.0 3.0 0.00 0.01 0.01 100 1017.7
20260901004015 82 17 0.0 4.0 0.00 0.01 0.01 100 1017.7
20260901003515 82 346 1.0 4.0 0.00 0.01 0.01 100 1017.7
20260901003015 82 45 1.0 3.0 0.00 0.01 0.01 100 1017.7
20260901002514 82 49 1.0 3.0 0.00 0.01 0.01 100 1017.6
20260901002014 82 19 0.0 3.0 0.00 0.01 0.01 100 1017.5
20260901001516 82 78 0.0 3.0 0.00 0.01 0.01 100 1017.5
20260901001017 82 36 0.0 3.0 0.00 0.01 0.01 100 1017.6
20260901000513 82 15 0.0 3.0 0.00 0.01 0.01 100 1017.5
20260901000013 82 11 0.0 3.0 0.00 0.01 0.01 100 1017.6
20260831235513 82 5 0.0 3.0 0.00 0.01 0.01 100 1017.6
20260831235013 82 5 0.0 3.0 0.00 0.01 0.01 100 1017.6
20260831234514 82 5 0.0 4.0 0.00 0.01 0.01 100 1017.5
20260831234012 82 346 1.0 5.0 0.00 0.01 0.01 100 1017.5
20260831233513 82 355 1.0 5.0 0.00 0.01 0.01 100 1017.5
20260831233012 82 9 0.0 4.0 0.00 0.01 0.01 100 1017.5
20260831232512 82 360 0.0 5.0 0.00 0.01 0.01 100 1017.5
20260831232012 82 355 2.0 5.0 0.00 0.01 0.01 100 1017.4
20260831231511 82 355 1.0 4.0 0.00 0.01 0.01 100 1017.3
20260831231011 82 5 0.0 5.0 0.00 0.01 0.01 100 1017.3
20260831230513 82 15 1.0 5.0 0.00 0.01 0.01 100 1017.4
20260831230012 82 329 0.0 5.0 0.00 0.01 0.01 100 1017.4
20260831225512 82 348 1.0 5.0 0.00 0.01 0.01 100 1017.3
20260831225012 83 27 0.0 6.0 0.00 0.01 0.01 100 1017.2
20260831224511 82 333 1.0 6.0 0.00 0.01 0.01 100 1017.3
20260831224012 83 24 3.0 6.0 0.00 0.01 0.01 100 1017.1
20260831223510 83 348 3.0 9.0 0.00 0.01 0.01 100 1017.3
20260831223013 83 34 2.0 9.0 0.00 0.01 0.01 100 1017.3
20260831222512 83 57 1.0 6.0 0.00 0.01 0.01 100 1017.3
20260831222012 83 5 2.0 6.0 0.00 0.01 0.01 100 1017.2
20260831221509 83 36 2.0 6.0 0.00 0.01 0.01 100 1017.2
20260831221010 84 13 2.0 9.0 0.00 0.01 0.01 100 1017.3
20260831220510 84 40 3.0 9.0 0.00 0.01 0.01 100 1017.3
20260831220010 84 347 2.0 6.0 0.00 0.01 0.01 100 1017.4
20260831215511 84 26 1.0 8.0 0.00 0.01 0.01 100 1017.4
20260831215010 84 53 2.0 9.0 0.00 0.01 0.01 100 1017.4
20260831214510 85 13 3.0 9.0 0.00 0.01 0.01 100 1017.4
20260831214008 85 348 2.0 6.0 0.00 0.01 0.01 100 1017.5
20260831213508 85 323 2.0 6.0 0.00 0.01 0.01 100 1017.5
20260831213008 85 360 3.0 6.0 0.00 0.01 0.01 100 1017.5
20260831212511 85 12 2.0 8.0 0.00 0.01 0.01 100 1017.5
20260831212009 85 317 4.0 9.0 0.00 0.01 0.01 100 1017.5
20260831211508 85 5 2.0 9.0 0.00 0.01 0.01 100 1017.4
20260831211008 85 355 3.0 9.0 0.00 0.01 0.01 100 1017.4
20260831210506 85 9 3.0 10.0 0.00 0.01 0.01 100 1017.4
20260831210007 86 14 4.0 10.0 0.00 0.01 0.01 100 1017.4
20260831205507 85 28 2.0 6.0 0.00 0.01 0.01 100 1017.4
20260831205007 85 9 2.0 10.0 0.01 0.01 0.01 100 1017.4
20260831204508 84 360 2.0 10.0 0.01 0.01 0.01 100 1017.4
20260831204006 84 9 4.0 9.0 0.01 0.01 0.01 100 1017.4
20260831203507 84 360 3.0 8.0 0.01 0.01 0.01 100 1017.5
20260831203006 83 13 1.0 5.0 0.01 0.01 0.01 100 1017.4
20260831202505 83 340 1.0 4.0 0.01 0.01 0.01 100 1017.4
20260831202006 83 302 0.0 2.0 0.01 0.01 0.01 100 1017.5
20260831201508 82 258 0.0 3.0 0.01 0.01 0.01 100 1017.6
20260831201007 82 233 0.0 5.0 0.01 0.01 0.01 100 1017.6
20260831200505 81 234 1.0 5.0 0.01 0.01 0.01 100 1017.7
20260831200015 81 235 2.0 5.0 0.01 0.01 0.01 100 1017.8
20260831195504 82 221 1.0 4.0 0.01 0.01 0.01 100 1017.9
20260831195004 83 250 0.0 4.0 0.00 0.00 0.00 100 1018.0
20260831194505 83 273 0.0 5.0 0.00 0.00 0.00 100 1018.1
20260831194005 84 236 1.0 5.0 0.00 0.00 0.00 100 1018.1
20260831193506 84 303 0.0 6.0 0.00 0.00 0.00 100 1018.2
20260831193005 85 299 2.0 6.0 0.00 0.00 0.00 100 1018.3
20260831192504 85 325 0.0 4.0 0.00 0.00 0.00 100 1018.3
20260831192004 85 315 0.0 4.0 0.00 0.00 0.00 100 1018.2
20260831191503 85 318 0.0 4.0 0.00 0.00 0.00 100 1018.1
20260831191003 85 316 1.0 4.0 0.00 0.00 0.00 100 1018.1
20260831190503 85 242 1.0 5.0 0.00 0.00 0.00 100 1018.1
20260831190004 86 239 1.0 5.0 0.00 0.00 0.00 100 1018.0
20260831185502 88 244 0.0 5.0 0.00 0.00 0.00 100 1017.9
20260831185001 89 344 1.0 6.0 0.00 0.00 0.00 100 1017.9
20260831184608 90 81 0.0 5.0 0.00 0.00 0.00 100 1017.8
20260831184058 90 30 2.0 5.0 0.00 0.00 0.00 100 1017.9
20260831183556 89 23 1.0 5.0 0.00 0.00 0.00 100 1018.0
20260831183100 88 138 1.0 5.0 0.00 0.00 0.00 100 1018.1
20260831182554 88 21 2.0 9.0 0.00 0.00 0.00 100 1018.2
20260831182053 89 144 3.0 10.0 0.00 0.00 0.00 100 1018.3
20260831181556 90 133 2.0 8.0 0.00 0.00 0.00 100 1018.2
20260831181048 89 26 2.0 10.0 0.00 0.00 0.00 100 1018.3
20260831180547 89 74 1.0 7.0 0.00 0.00 0.00 100 1018.2
20260831180046 89 121 2.0 11.0 0.00 0.00 0.00 100 1018.2
20260831175544 89 119 2.0 11.0 0.00 0.00 0.00 100 1018.2
20260831175043 89 40 3.0 8.0 0.00 0.00 0.00 100 1018.2
20260831174542 89 32 2.0 9.0 0.00 0.00 0.00 100 1018.1
20260831174041 89 51 1.0 9.0 0.00 0.00 0.00 100 1018.2
20260831173540 89 30 2.0 6.0 0.00 0.00 0.00 100 1018.4
20260831173038 89 22 2.0 8.0 0.00 0.00 0.00 100 1018.6
20260831172537 88 360 2.0 9.0 0.00 0.00 0.00 100 1018.7
20260831172035 88 138 3.0 9.0 0.00 0.00 0.00 100 1018.7
20260831171538 88 82 2.0 6.0 0.00 0.00 0.00 100 1018.5
20260831171035 89 140 2.0 8.0 0.00 0.00 0.00 100 1018.6
20260831170534 89 28 1.0 8.0 0.00 0.00 0.00 100 1018.7
20260831170033 89 64 2.0 8.0 0.00 0.00 0.00 100 1018.9
20260831165528 88 59 2.0 8.0 0.00 0.00 0.00 100 1018.9
20260831165025 89 114 1.0 8.0 0.00 0.00 0.00 100 1018.8
20260831164524 88 325 2.0 11.0 0.00 0.00 0.00 100 1018.8
20260831164022 88 93 3.0 11.0 0.00 0.00 0.00 100 1018.7
20260831163521 87 41 1.0 7.0 0.00 0.00 0.00 100 1018.7